sat.trackr.live / text

‹ back to catalog

COSMOS 2467

NORAD 37152 · 2010-043A

PAYLOAD ACTIVE UNKNOWN

§ Identity

Operator
Country
CIS
Launch date
2010-09-08
Launch site
PLMSC
Launch vehicle
Mass (kg)
RCS (m²)
1.65

External: N2YO · Heavens-Above · Gunter

§ Orbital elements

Epoch: 2026-09-20T01:45:20.185056Z

Period
115.85 min
Inclination
82.4627°
Eccentricity
0.0000163
Mean motion
12.42989881 rev/d
Perigee alt
1,493.8 km
Apogee alt
1,494.1 km
Semi-major
7,872.1 km
B*
9.4694e-5
RAAN
5.6538°
Arg perigee
128.9327°
Mean anomaly
347.7182°
Rev number
72,729

§ Raw data

COSMOS 24671 37152U 10043A   26263.07315029  .00000023  00000+0  94694-4 0  99922 37152  82.4627   5.6538 0000163 128.9327 347.7182 12.42989881727299

JSON: /api/v1/satellites/37152 · /tle

For live sub-satellite position, see the globe view (requires WebGL).

§ Visibility from observer

Set your observer location to see the next 7 days of passes ≥ 10°. The values pass through the URL so the page stays shareable.

No JS? Fill the form by hand. The geolocation button needs JavaScript.